Weather Service Report


745 
ASUS41 KGYX 310505
RWRGYX
WEATHER ROUNDUP FOR MAINE AND NEW HAMPSHIRE
NATIONAL WEATHER SERVICE GRAY ME
100 AM EDT FRI JUL 31 2015

MEZ002-005-006-010-012-015-018-020-021-024-026-027-029-310600-
MAINE
  
CITY           SKY/WX    TMP DP  RH WIND       PRES   REMARKS
PORTLAND       CLEAR     72  71  97 W3        29.74S                  
SANFORD        CLEAR     70  66  88 SW5       29.76F                  
BAR HARBOR     CLOUDY    66  66 100 SW5       29.70S                  
WISCASSET      CLOUDY    70  68  93 CALM      29.74S FOG              
ROCKLAND       CLEAR     70  66  88 W6        29.71R                  
FRYEBURG       CLEAR     69  68  96 W7        29.75S                  
LEWISTONAUBURN PTCLDY    66  64  94 CALM      29.74S                  
AUGUSTA        CLEAR     71  69  93 W6        29.73R                  
WATERVILLE     CLEAR     70  66  88 W5        29.69S                  
BANGOR         CLOUDY    69  68  96 S5        29.70S FOG              
GREENVILLE       N/A     66  65  96 CALM      29.70F                  
MILLINOCKET    MOCLDY    69  67  93 CALM      29.68F                  
HOULTON        CLOUDY    69  67  93 S5        29.65F FOG              
PRESQUE ISLE   MOCLDY    70  64  83 S6        29.64F                  
FRENCHVILLE    PTCLDY    66  65  96 S7        29.64F FOG              
CARIBOU        CLOUDY    69  67  93 SW5       29.64F                  
$$

NHZ002-005-008-009-011-012-014-310600-
NEW HAMPSHIRE
  
CITY           SKY/WX    TMP DP  RH WIND       PRES   REMARKS
PORTSMOUTH     PTCLDY    73  71  94 SW7       29.75S FOG              
ROCHESTER      CLEAR     72  69  90 CALM      29.76S                  
MANCHESTER     CLEAR     73  69  87 SW5       29.76S                  
CONCORD        CLEAR     71  68  90 S3        29.78S                  
LACONIA        CLEAR     72  66  83 SW10      29.76F                  
PLYMOUTH       FOG       65  65 100 CALM      29.77S VSB 1/2          
BERLIN         FOG       62  61  96 CALM      29.77F VSB 1/2          
WHITEFIELD     CLEAR     63  61  93 CALM      29.78S FOG              
JAFFREY        CLEAR     68  66  93 S7        29.83S                  
KEENE            N/A     66  61  82 CALM      29.81F VSB 1/2          
LEBANON        MOCLDY    66  63  90 CALM      29.78S                  
MT WASHINGTON  FOG       52  52 100 W54G64      N/A  VSB 0            
$$

VTZ005-007-008-310600-
VERMONT
  
CITY           SKY/WX    TMP DP  RH WIND       PRES   REMARKS
ST JOHNSBURY     N/A     67  66  97 MISG      29.75S                  
MONTPELIER     PTCLDY    67  58  72 CALM      29.83S                  
BURLINGTON     PTCLDY    72  60  66 S8        29.76R                  
$$

MAZ007-012-024-CTZ003-RIZ002-NYZ038-NYZ072-310600-
SOUTHERN NEW ENGLAND AND NY
  
CITY           SKY/WX    TMP DP  RH WIND       PRES   REMARKS
BOSTON         PTCLDY    74  71  91 SW12      29.78F                  
WORCESTER      CLEAR     69  67  93 W8        29.84S                  
NANTUCKET      CLOUDY    72  70  93 SW7       29.83S                  
PROVIDENCE     MOCLDY    74  72  93 S5        29.81S                  
HARTFORD       PTCLDY    72  70  93 SW3       29.81S FOG              
ALBANY         PTCLDY    70  62  76 SW3       29.82S                  
NEW YORK CITY  PTCLDY    78  72  81 SW3       29.83S                  
$$

ANZ081-ANZ082-ANZ150-NHZ014-MEZ023>029-310600-
COASTAL MARINE OBSERVATIONS
  
STATION/POSITION TIME  TEMP    WIND        PRES    WAVE
                       AIR SEA DIR/SP/G            HT/PER
                 (UTC) (F)     (DEG/KT/KT) (MB)    (FT/S)
MOUNT DESERT ROC 0500   62     210/ 21/ 23 1006.2F
MATINICUS ROCK   0400   62     230/ 22/ 23 1006.2S
ISLE OF SHOALS   0400   70     240/  6/  7 1007.2S
JEFFREYS LEDGE   0403      67                N/A     4/10
CASHES LEDGE BUO 0450   69                 1006.7S   5/ 6
GEORGES BANK BUO 0350   69 65  180/  8/ 10 1011.9    4/ 9
$$

.............KEY..............
   WCI - WIND CHILL
   TC  - TEMPERATURE IN CELSIUS
   VSB - VISIBILITY IN MILES
   HX  - HEAT INDEX
   FAIR- INDICATES FEW OR NO CLOUDS BELOW 12,000 FT, WITH NO 
         SIGNIFICANT WEATHER AND/OR OBSTRUCTIONS TO VISIBILITY.



Return to Home page


Western Regional Climate Center, wrcc@dri.edu